User: anonymous   Login
Location: Unspecified
(0.0000°N, 0.0000°E)
Time: 00:12:46
(UTC+00:00)
Language:

COSMOS 2401 - Orbit

View from above orbital plane
View from above orbital plane
View from above satellite
View from above satellite

Ground track
Ground track

The orbit data is extracted from the following two-line orbital elements,

1 27869U 03037B   24176.55047439  .00000046  00000-0  25065-3 0  9993
2 27869  82.4699  59.6512 0021770 190.7235 169.3385 12.45481293947806
Epoch (UTC): 24 June 2024 13:12:40
Eccentricity: 0.0021770
inclination: 82.4699°
perigee height: 1466 km
apogee height: 1500 km
right ascension of ascending node: 59.6512°
argument of perigee: 190.7235°
revolutions per day: 12.45481293
mean anomaly at epoch: 169.3385°
orbit number at epoch: 94780

The dashed part of the orbit path shows where the satellite is in the earth's shadow,  

DLR